TimeEDT,TemperatureF,Dew PointF,Humidity,Sea Level PressureIn,VisibilityMPH,Wind Direction,Wind SpeedMPH,Gust SpeedMPH,PrecipitationIn,Events,Conditions,WindDirDegrees,DateUTC
12:15 AM,24.3,19.2,81,29.91,10.0,Calm,Calm,-,N/A,,Clear,0,2013-03-22 04:15:00
12:35 AM,26.1,19.2,75,29.91,10.0,Calm,Calm,-,N/A,,Clear,0,2013-03-22 04:35:00
12:55 AM,23.5,20.5,88,29.91,10.0,Calm,Calm,-,N/A,,Clear,0,2013-03-22 04:55:00
1:15 AM,23.5,19.9,86,29.91,10.0,Calm,Calm,-,N/A,,Clear,0,2013-03-22 05:15:00
1:35 AM,23.9,21.2,89,29.92,10.0,Calm,Calm,-,N/A,,Clear,0,2013-03-22 05:35:00
1:55 AM,25.9,19.6,77,29.91,10.0,WSW,4.6,-,N/A,,Clear,240,2013-03-22 05:55:00
2:15 AM,27.7,19.0,70,29.91,10.0,SW,4.6,-,N/A,,Clear,230,2013-03-22 06:15:00
2:35 AM,27.5,18.7,69,29.92,10.0,WSW,4.6,-,N/A,,Clear,240,2013-03-22 06:35:00
2:55 AM,27.3,18.3,69,29.91,10.0,WSW,4.6,-,N/A,,Clear,250,2013-03-22 06:55:00
3:15 AM,29.8,18.3,62,29.92,10.0,WSW,5.8,-,N/A,,Clear,240,2013-03-22 07:15:00
3:35 AM,30.0,17.8,60,29.91,10.0,SW,3.5,-,N/A,,Clear,230,2013-03-22 07:35:00
3:55 AM,30.2,17.6,60,29.91,10.0,WSW,3.5,-,N/A,,Clear,250,2013-03-22 07:55:00
4:15 AM,29.8,18.5,63,29.91,10.0,SW,4.6,-,N/A,,Clear,230,2013-03-22 08:15:00
4:35 AM,30.2,17.8,60,29.91,10.0,SW,3.5,-,N/A,,Clear,220,2013-03-22 08:35:00
4:55 AM,29.8,18.3,62,29.90,10.0,SSW,4.6,-,N/A,,Clear,200,2013-03-22 08:55:00
5:15 AM,29.3,18.3,64,29.91,10.0,SSW,4.6,-,N/A,,Clear,200,2013-03-22 09:15:00
5:35 AM,30.0,18.5,62,29.91,10.0,WSW,5.8,-,N/A,,Clear,240,2013-03-22 09:35:00
5:55 AM,30.6,19.0,62,29.92,10.0,SW,6.9,-,N/A,,Clear,230,2013-03-22 09:55:00
6:15 AM,30.6,18.9,62,29.93,10.0,SW,3.5,-,N/A,,Clear,230,2013-03-22 10:15:00
6:35 AM,30.2,19.0,63,29.93,10.0,SW,6.9,-,N/A,,Clear,220,2013-03-22 10:35:00
6:55 AM,30.4,18.9,62,29.94,10.0,SSW,6.9,-,N/A,,Clear,210,2013-03-22 10:55:00
7:15 AM,30.7,18.5,60,29.95,10.0,SW,4.6,-,N/A,,Clear,230,2013-03-22 11:15:00
7:35 AM,31.3,19.0,61,29.95,10.0,SW,5.8,-,N/A,,Clear,230,2013-03-22 11:35:00
7:55 AM,32.0,19.4,60,29.96,10.0,WSW,5.8,-,N/A,,Clear,250,2013-03-22 11:55:00
8:15 AM,32.7,21.0,62,29.96,10.0,WSW,5.8,-,N/A,,Clear,250,2013-03-22 12:15:00
8:35 AM,33.4,20.7,59,29.96,10.0,WSW,5.8,-,N/A,,Clear,240,2013-03-22 12:35:00
8:55 AM,34.5,20.8,57,29.96,10.0,WSW,5.8,-,N/A,,Clear,240,2013-03-22 12:55:00
9:15 AM,36.1,21.7,56,29.97,10.0,SW,6.9,-,N/A,,Clear,230,2013-03-22 13:15:00
9:35 AM,37.0,21.6,54,29.97,10.0,SW,11.5,-,N/A,,Clear,220,2013-03-22 13:35:00
9:55 AM,37.8,21.6,52,29.97,10.0,WSW,5.8,-,N/A,,Clear,250,2013-03-22 13:55:00
10:15 AM,38.8,22.1,51,29.97,10.0,WSW,5.8,-,N/A,,Scattered Clouds,240,2013-03-22 14:15:00
10:35 AM,39.6,21.9,49,29.97,10.0,West,6.9,-,N/A,,Scattered Clouds,260,2013-03-22 14:35:00
10:55 AM,40.8,23.2,50,29.97,10.0,West,8.1,16.1,N/A,,Scattered Clouds,260,2013-03-22 14:55:00
11:15 AM,42.3,23.0,47,29.96,10.0,West,5.8,-,N/A,,Scattered Clouds,260,2013-03-22 15:15:00
11:35 AM,42.1,23.7,48,29.96,10.0,WNW,8.1,-,N/A,,Clear,290,2013-03-22 15:35:00
11:55 AM,43.0,23.7,47,29.95,10.0,NW,8.1,-,N/A,,Clear,310,2013-03-22 15:55:00
12:15 PM,43.9,24.1,46,29.95,10.0,WSW,10.4,16.1,N/A,,Clear,250,2013-03-22 16:15:00
12:35 PM,44.8,24.3,45,29.95,10.0,West,8.1,-,N/A,,Clear,260,2013-03-22 16:35:00
12:55 PM,45.5,24.4,44,29.94,10.0,West,5.8,-,N/A,,Clear,260,2013-03-22 16:55:00
1:15 PM,45.1,23.9,43,29.93,10.0,WSW,4.6,18.4,N/A,,Clear,250,2013-03-22 17:15:00
1:35 PM,46.8,24.6,42,29.92,10.0,SW,4.6,-,N/A,,Clear,230,2013-03-22 17:35:00
1:55 PM,48.2,25.9,42,29.91,10.0,WSW,5.8,-,N/A,,Clear,240,2013-03-22 17:55:00
2:15 PM,48.2,23.9,39,29.90,10.0,West,5.8,16.1,N/A,,Clear,270,2013-03-22 18:15:00
2:35 PM,49.3,25.7,40,29.89,10.0,West,9.2,-,N/A,,Clear,270,2013-03-22 18:35:00
2:55 PM,50.0,26.4,40,29.89,10.0,WNW,9.2,17.3,N/A,,Clear,300,2013-03-22 18:55:00
3:15 PM,50.9,26.8,39,29.88,10.0,NW,11.5,18.4,N/A,,Clear,310,2013-03-22 19:15:00
3:35 PM,50.9,26.2,38,29.87,10.0,WNW,8.1,16.1,N/A,,Clear,300,2013-03-22 19:35:00
3:55 PM,51.6,27.1,39,29.87,10.0,WNW,11.5,17.3,N/A,,Clear,300,2013-03-22 19:55:00
4:15 PM,51.6,27.0,38,29.87,10.0,West,11.5,17.3,N/A,,Clear,280,2013-03-22 20:15:00
4:35 PM,51.8,26.8,38,29.87,10.0,NNW,8.1,16.1,N/A,,Clear,330,2013-03-22 20:35:00
4:55 PM,52.0,26.1,37,29.87,10.0,West,10.4,-,N/A,,Clear,280,2013-03-22 20:55:00
5:15 PM,52.0,26.6,37,29.88,10.0,NW,9.2,-,N/A,,Clear,320,2013-03-22 21:15:00
5:35 PM,52.5,27.1,38,29.88,10.0,NW,8.1,-,N/A,,Clear,310,2013-03-22 21:35:00
5:55 PM,51.4,26.8,38,29.88,10.0,WNW,6.9,-,N/A,,Clear,290,2013-03-22 21:55:00
6:15 PM,51.4,27.9,40,29.89,10.0,NW,6.9,-,N/A,,Clear,310,2013-03-22 22:15:00
6:35 PM,50.2,27.5,42,29.89,10.0,NW,10.4,-,N/A,,Clear,310,2013-03-22 22:35:00
6:55 PM,47.8,27.3,45,29.90,10.0,NNW,9.2,-,N/A,,Clear,330,2013-03-22 22:55:00
7:15 PM,46.2,26.8,47,29.91,10.0,NNW,8.1,-,N/A,,Clear,330,2013-03-22 23:15:00
7:35 PM,43.7,27.0,52,29.92,10.0,NW,6.9,-,N/A,,Clear,320,2013-03-22 23:35:00
7:55 PM,40.1,27.0,59,29.93,10.0,North,3.5,-,N/A,,Clear,350,2013-03-22 23:55:00
8:15 PM,39.6,26.6,60,29.93,10.0,NNE,3.5,-,N/A,,Clear,20,2013-03-23 00:15:00
8:35 PM,42.3,26.2,53,29.94,10.0,NNE,5.8,-,N/A,,Clear,30,2013-03-23 00:35:00
8:55 PM,42.6,25.5,51,29.95,10.0,NNE,3.5,-,N/A,,Clear,30,2013-03-23 00:55:00
9:15 PM,36.7,26.8,67,29.95,10.0,Calm,Calm,-,N/A,,Clear,0,2013-03-23 01:15:00
9:35 PM,40.1,25.7,56,29.96,10.0,NE,4.6,-,N/A,,Clear,40,2013-03-23 01:35:00
9:55 PM,33.6,27.0,77,29.97,10.0,NE,3.5,-,N/A,,Clear,40,2013-03-23 01:55:00
10:15 PM,33.8,26.2,74,29.97,10.0,Calm,Calm,-,N/A,,Clear,0,2013-03-23 02:15:00
10:35 PM,32.0,26.4,80,29.98,10.0,Calm,Calm,-,N/A,,Clear,0,2013-03-23 02:35:00
10:55 PM,36.1,25.5,65,29.98,10.0,Calm,Calm,-,N/A,,Clear,0,2013-03-23 02:55:00
11:15 PM,31.1,26.4,83,29.99,10.0,North,3.5,-,N/A,,Clear,10,2013-03-23 03:15:00
11:35 PM,32.2,26.2,79,29.99,10.0,Calm,Calm,-,N/A,,Clear,0,2013-03-23 03:35:00
11:55 PM,30.6,25.9,83,30.00,10.0,Calm,Calm,-,N/A,,Clear,0,2013-03-23 03:55:00